TimeEDT,TemperatureF,Dew PointF,Humidity,Sea Level PressureIn,VisibilityMPH,Wind Direction,Wind SpeedMPH,Gust SpeedMPH,PrecipitationIn,Events,Conditions,WindDirDegrees,DateUTC
12:53 AM,63.0,55.0,75,30.26,10.0,Calm,Calm,-,N/A,,Partly Cloudy,0,2012-10-13 04:53:00
1:53 AM,59.0,55.0,87,30.25,10.0,Calm,Calm,-,N/A,,Scattered Clouds,0,2012-10-13 05:53:00
2:53 AM,57.9,55.0,90,30.26,10.0,Calm,Calm,-,N/A,,Partly Cloudy,0,2012-10-13 06:53:00
3:53 AM,55.9,53.1,90,30.27,10.0,Calm,Calm,-,N/A,,Clear,0,2012-10-13 07:53:00
4:53 AM,55.0,53.1,93,30.28,10.0,Calm,Calm,-,N/A,,Clear,0,2012-10-13 08:53:00
5:53 AM,53.1,52.0,96,30.30,8.0,Calm,Calm,-,N/A,,Clear,0,2012-10-13 09:53:00
6:53 AM,53.1,51.1,93,30.32,10.0,Calm,Calm,-,N/A,,Clear,0,2012-10-13 10:53:00
7:53 AM,53.1,50.0,89,30.35,10.0,East,3.5,-,N/A,,Clear,80,2012-10-13 11:53:00
8:53 AM,59.0,51.1,75,30.38,10.0,ENE,8.1,-,N/A,,Clear,60,2012-10-13 12:53:00
9:53 AM,63.0,50.0,63,30.39,10.0,ENE,8.1,-,N/A,,Clear,60,2012-10-13 13:53:00
10:53 AM,66.0,51.1,59,30.40,10.0,NE,9.2,-,N/A,,Clear,40,2012-10-13 14:53:00
11:53 AM,69.1,53.1,57,30.39,10.0,NE,8.1,-,N/A,,Clear,40,2012-10-13 15:53:00
12:53 PM,72.0,55.0,55,30.37,10.0,Variable,6.9,-,N/A,,Clear,0,2012-10-13 16:53:00
1:53 PM,73.0,55.0,53,30.34,10.0,ENE,8.1,-,N/A,,Clear,60,2012-10-13 17:53:00
2:53 PM,75.0,55.9,51,30.30,10.0,ENE,10.4,-,N/A,,Clear,70,2012-10-13 18:53:00
3:53 PM,75.2,55.4,50,30.29,10.0,East,8.1,-,N/A,,Scattered Clouds,80,2012-10-13 19:53:00
4:53 PM,75.9,55.9,50,30.28,10.0,Variable,5.8,-,N/A,,Partly Cloudy,0,2012-10-13 20:53:00
5:53 PM,73.9,55.9,53,30.28,10.0,East,5.8,-,N/A,,Mostly Cloudy,100,2012-10-13 21:53:00
6:53 PM,68.0,57.9,70,30.28,10.0,East,3.5,-,N/A,,Clear,80,2012-10-13 22:53:00
8:53 PM,62.1,57.0,84,30.30,10.0,ESE,3.5,-,N/A,,Clear,110,2012-10-14 00:53:00
9:53 PM,59.0,55.4,88,30.31,10.0,Calm,Calm,-,N/A,,Clear,0,2012-10-14 01:53:00
10:53 PM,57.0,55.0,93,30.32,10.0,Calm,Calm,-,N/A,,Clear,0,2012-10-14 02:53:00
11:53 PM,57.0,55.0,93,30.31,10.0,Calm,Calm,-,N/A,,Overcast,0,2012-10-14 03:53:00